Вернуться в каталог

CZ-6A DEB

АктивенPO
NORAD 60763·DEBRIS·🇨🇳 China

Запущен Aug 6, 2024 с Taiyuan Satellite Launch Center

Loading…

Ближайшие Пролёты (ближайшие 24 часа)

TLE

СвежийSource: Space-Track

Эпоха: Sep 14, 2026, 10:53 UTC

1 60763U 24140EN  26257.45350091  .00002754  00000-0  48712-3 0  9995
2 60763  89.0190 261.0439 0102759 286.8310  72.1654 14.63709505110825

Отслеживайте CZ-6A DEB в реальном времени с AllMySat

Download on the App Store